TimeCDT,TemperatureF,Dew PointF,Humidity,Sea Level PressureIn,VisibilityMPH,Wind Direction,Wind SpeedMPH,Gust SpeedMPH,PrecipitationIn,Events,Conditions,WindDirDegrees,DateUTC
12:54 AM,68.0,64.0,87,29.91,10.0,WNW,8.1,-,N/A,,Clear,290,2013-06-18 05:54:00
1:54 AM,66.9,64.0,90,29.91,10.0,WSW,4.6,-,N/A,,Clear,250,2013-06-18 06:54:00
2:54 AM,66.9,64.0,90,29.92,10.0,West,4.6,-,N/A,,Clear,270,2013-06-18 07:54:00
3:54 AM,64.9,63.0,93,29.92,10.0,SW,5.8,-,N/A,,Clear,220,2013-06-18 08:54:00
4:54 AM,66.0,63.0,90,29.95,10.0,West,8.1,-,N/A,,Clear,270,2013-06-18 09:54:00
5:54 AM,64.9,63.0,93,29.94,9.0,WSW,3.5,-,N/A,,Clear,250,2013-06-18 10:54:00
6:54 AM,68.0,64.0,87,29.94,10.0,West,3.5,-,N/A,,Clear,260,2013-06-18 11:54:00
7:54 AM,70.0,64.0,81,29.95,10.0,WSW,5.8,-,N/A,,Clear,250,2013-06-18 12:54:00
8:54 AM,73.0,64.9,76,29.94,10.0,WSW,4.6,-,N/A,,Clear,240,2013-06-18 13:54:00
9:54 AM,77.0,66.0,69,29.94,10.0,WSW,5.8,-,N/A,,Clear,240,2013-06-18 14:54:00
10:54 AM,80.1,66.9,64,29.94,10.0,West,3.5,-,N/A,,Clear,260,2013-06-18 15:54:00
11:54 AM,82.9,66.0,56,29.94,10.0,WNW,6.9,-,N/A,,Clear,290,2013-06-18 16:54:00
12:54 PM,86.0,63.0,46,29.94,10.0,WNW,4.6,-,N/A,,Clear,300,2013-06-18 17:54:00
1:54 PM,87.1,61.0,41,29.93,10.0,West,10.4,-,N/A,,Clear,280,2013-06-18 18:54:00
2:54 PM,89.1,57.0,34,29.92,10.0,NW,12.7,-,N/A,,Clear,310,2013-06-18 19:54:00
3:54 PM,89.1,59.0,36,29.91,10.0,NW,12.7,17.3,N/A,,Clear,310,2013-06-18 20:54:00
4:54 PM,86.0,55.0,35,29.90,10.0,NNW,11.5,-,N/A,,Clear,340,2013-06-18 21:54:00
5:54 PM,84.9,61.0,44,29.90,10.0,NNW,8.1,-,N/A,,Clear,340,2013-06-18 22:54:00
6:54 PM,82.9,59.0,44,29.91,10.0,NNW,10.4,-,N/A,,Clear,330,2013-06-18 23:54:00
7:54 PM,80.1,60.1,50,29.92,10.0,NNW,6.9,-,N/A,,Clear,340,2013-06-19 00:54:00
8:54 PM,75.9,61.0,60,29.93,10.0,NNW,6.9,-,N/A,,Clear,340,2013-06-19 01:54:00
9:54 PM,75.0,61.0,62,29.95,10.0,NNW,5.8,-,N/A,,Clear,330,2013-06-19 02:54:00
10:54 PM,73.9,62.1,66,29.95,10.0,Calm,Calm,-,N/A,,Clear,0,2013-06-19 03:54:00
11:54 PM,73.0,62.1,68,29.96,10.0,NE,10.4,-,N/A,,Clear,40,2013-06-19 04:54:00